This is the latest recevied weather packets stored in our database for station/object IT9FBN-3. If no packets are shown the sender has not sent any weather packets the latest 10 day(s).
| Time | Temp. | Humidity | Pressure | Rain* | Wind** | Luminosity | Snow |
|---|---|---|---|---|---|---|---|
| 1777647603 | 17.78° C | 61% | 1018.6 hPa | 0 mm | - | - | - |
| 1777647303 | 17.78° C | 61% | 1018.6 hPa | 0 mm | - | - | - |
| 1777647003 | 17.78° C | 61% | 1018.7 hPa | 0 mm | - | - | - |
| 1777646703 | 18.33° C | 61% | 1018.6 hPa | 0 mm | - | - | - |
| 1777646403 | 18.33° C | 60% | 1018.8 hPa | 0 mm | - | - | - |
| 1777646103 | 18.33° C | 60% | 1018.7 hPa | 0 mm | - | - | - |
| 1777645803 | 18.33° C | 61% | 1018.8 hPa | 0 mm | - | - | - |
| 1777645503 | 18.33° C | 59% | 1018.8 hPa | 0 mm | - | - | - |
| 1777645203 | 18.33° C | 60% | 1018.8 hPa | 0 mm | - | - | - |
| 1777644903 | 18.89° C | 61% | 1018.8 hPa | 0 mm | - | - | - |
| 1777644603 | 18.89° C | 61% | 1018.8 hPa | 0 mm | - | - | - |
| 1777644303 | 18.33° C | 61% | 1018.7 hPa | 0 mm | - | - | - |
| 1777644003 | 18.89° C | 62% | 1018.8 hPa | 0 mm | - | - | - |
| 1777643703 | 18.89° C | 61% | 1018.8 hPa | 0 mm | - | - | - |
| 1777643403 | 18.89° C | 62% | 1018.8 hPa | 0 mm | - | - | - |
| 1777643103 | 18.89° C | 61% | 1018.9 hPa | 0 mm | - | - | - |
| 1777642803 | 18.89° C | 62% | 1019 hPa | 0 mm | - | - | - |
| 1777642503 | 19.44° C | 62% | 1019 hPa | 0 mm | - | - | - |
| 1777642203 | 18.89° C | 62% | 1019 hPa | 0 mm | - | - | - |
| 1777641903 | 18.89° C | 63% | 1019 hPa | 0 mm | - | - | - |
| 1777641603 | 18.89° C | 63% | 1018.9 hPa | 0 mm | - | - | - |
| 1777641303 | 18.89° C | 62% | 1019 hPa | 0 mm | - | - | - |
| 1777641003 | 18.89° C | 63% | 1019.1 hPa | 0 mm | - | - | - |
| 1777640703 | 18.89° C | 63% | 1019.1 hPa | 0 mm | - | - | - |
| 1777640403 | 18.33° C | 63% | 1019.3 hPa | 0 mm | - | - | - |
* Rain latest hour (hover to see other rain measurements)
** Current wind speed in m/s (hover to see current wind gust speed)